Welcome to the New NWS' Forecast!
Most changes are behind the scenes, but click here for differences you might notice.

Regional Weather Roundup (RWR)

Issued by Gray - Portland, ME (GYX)

                            
000
ASUS41 KGYX 151405
RWRGYX
WEATHER ROUNDUP FOR MAINE AND NEW HAMPSHIRE
NATIONAL WEATHER SERVICE GRAY ME
1000 AM EDT WED AUG 15 2018

MEZ002-005-006-010-012-015-018-020-021-024-026-027-029-151500-
MAINE
  
CITY           SKY/WX    TMP DP  RH WIND       PRES   REMARKS
PORTLAND       CLOUDY    73  70  90 CALM      29.84R                  
SANFORD        CLOUDY    73  70  90 VRB5      29.85S                  
BAR HARBOR     CLOUDY    71  69  93 SW10      29.84R                  
WISCASSET      CLOUDY    72  70  93 SW6       29.85R                  
ROCKLAND       CLOUDY    69  69 100 S5        29.83S FOG              
FRYEBURG       CLOUDY    73  69  87 VRB3      29.86R                  
LEWISTONAUBURN   N/A     72  68  87 W5        29.85R                  
AUGUSTA        CLOUDY    72  68  87 VRB5      29.84R                  
WATERVILLE     CLOUDY    73  67  81 SW5       29.81R                  
BANGOR         CLOUDY    74  69  85 VRB7      29.83R                  
GREENVILLE       N/A     71  66  84 S6        29.84R                  
MILLINOCKET    PTSUNNY   76  67  73 VRB5      29.81F                  
HOULTON        CLOUDY    73  69  87 SW10      29.79S                  
PRESQUE ISLE   CLOUDY    74  68  81 SW8       29.79S                  
FRENCHVILLE    PTSUNNY   74  68  81 SW7       29.77F                  
CARIBOU        CLOUDY    74  68  81 SW8       29.77S                  
$$

NHZ002-005-008-009-011-012-014-151500-
NEW HAMPSHIRE
  
CITY           SKY/WX    TMP DP  RH WIND       PRES   REMARKS
PORTSMOUTH     CLOUDY    72  68  88 W8        29.83R                  
ROCHESTER      CLOUDY    72  70  93 CALM      29.85R                  
MANCHESTER     NOT AVBL                                               
CONCORD        FAIR      77  68  73 NW3       29.85R                  
LACONIA        PTSUNNY   74  68  81 SW7       29.86R                  
PLYMOUTH       FAIR      75  66  73 W8        29.86R                  
BERLIN         FAIR      75  67  76 CALM      29.88R                  
WHITEFIELD     CLOUDY    72  67  84 CALM      29.89R                  
JAFFREY        NOT AVBL                                               
LEBANON        FAIR      73  65  75 CALM      29.87R                  
MT WASHINGTON  PTSUNNY   54  52  94 NW14        N/A                   
$$

VTZ005-007-008-151500-
VERMONT
  
CITY           SKY/WX    TMP DP  RH WIND       PRES   REMARKS
ST JOHNSBURY     N/A     70  66  87 MISG      29.86R                  
MONTPELIER     RAIN      69  68  96 NW5       29.93R FOG              
BURLINGTON     PTSUNNY   76  68  76 S8        29.85S                  
$$

MAZ007-012-024-CTZ003-RIZ002-NYZ038-NYZ072-151500-
SOUTHERN NEW ENGLAND AND NY
  
CITY           SKY/WX    TMP DP  RH WIND       PRES   REMARKS
BOSTON         CLOUDY    76  69  79 W7        29.84R                  
WORCESTER      CLOUDY    72  67  84 W6        29.89R                  
NANTUCKET      FAIR      72  70  93 SW12      29.85R                  
PROVIDENCE     PTSUNNY   76  68  76 VRB5      29.85S                  
HARTFORD       PTSUNNY   78  68  71 VRB3      29.86S                  
ALBANY         PTSUNNY   76  67  73 NW9       29.90R                  
NEW YORK CITY  FAIR      79  65  62 NW13      29.90R                  
$$

ANZ081-ANZ082-ANZ150-NHZ014-MEZ023>029-151500-
COASTAL MARINE OBSERVATIONS
  
STATION/POSITION TIME  TEMP    WIND        PRES    WAVE
                       AIR SEA DIR/SP/G            HT/PER
                 (UTC) (F)     (DEG/KT/KT) (MB)    (FT/S)
MOUNT DESERT ROC 1300   67     170/ 13/ 14 1010.4S
MATINICUS ROCK   1300   66     250/  6/  6 1010.0R
ISLE OF SHOALS   1300   68     310/  1/  2 1009.7R
JEFFREYS LEDGE   1336      69                N/A     2/ 7
$$

.............KEY..............
   WCI - WIND CHILL
   TC  - TEMPERATURE IN CELSIUS
   VSB - VISIBILITY IN MILES
   HX  - HEAT INDEX
   FAIR- INDICATES FEW OR NO CLOUDS BELOW 12,000 FT, WITH NO 
         SIGNIFICANT WEATHER AND/OR OBSTRUCTIONS TO VISIBILITY.